ELEKTRO-L 3

Last updated on Wed Sep 09 2026 00:02:49 GMT+0000 (Coordinated Universal Time)

1 44903U 19095A 26251.46015990 -.00000116 00000+0 00000+0 0 9991 2 44903 0.4647 82.3946 0001252 74.9605 71.7467 1.00270418 24546
UTC large
Height (km)
Speed (km/s)
/
Latitude / Longitude
Inclination (degrees)
Orbital Period (minutes)
Azimuth
Elevation
Range (km)
Doppler Factor

Next 0 passes for location: London (51.5072 / 0.1276)

No passes found over London.
ELEKTRO-L 3